Ludington, MI

11:04 AM EDT on May 25, 2018 (GMT -0400)
Mason County

Weather History for KLDM - February, 2013

Change the Weather History Date:

Saturday, February 23, 2013

  Actual Average Record
Temperature  
Mean Temperature 31 °F -  
Max Temperature 32 °F 36 °F 53 °F (1984)
Min Temperature 30 °F 21 °F -7 °F (1965)
Degree Days  
Heating Degree Days 34    
Moisture  
Dew Point 24 °F    
Average Humidity 78    
Maximum Humidity 85    
Minimum Humidity 71    
Precipitation  
Precipitation 0.00 in - - ()
Sea Level Pressure  
Sea Level Pressure 29.82 in    
Wind  
Wind Speed 10 mph (West)    
Max Wind Speed 14 mph    
Max Gust Speed 20 mph    
Visibility 7 miles    
Events Snow    
Averages and records for this station are not official NWS values.
T = Trace of Precipitation, MM = Missing Value Source: NWS Daily Summary

Daily Weather History Graph

Daily Weather History Graph

Search for Another Location

Airport or City:

Astronomy

Feb. 23, 2013 Rise Set
Actual Time 7:31 AM EST 6:26 PM EST
Civil Twilight 7:02 AM EST 6:55 PM EST
Nautical Twilight 6:29 AM EST 7:29 PM EST
Astronomical Twilight 5:56 AM EST 8:02 PM EST
Moon 4:34 PM EST (2/23) 5:56 AM EST (2/23)
Length of Visible Light 11h 52m
Length of Day
10h 54m
Waxing Gibbous, 95% of the Moon is Illuminated
Feb 23
Waxing Gibbous
Feb 25
Full
Mar 4
Last Quarter
Mar 11
New
Mar 19
First Quarter

Hourly Weather History & Observations

Time (EST) Temp. Windchill Dew Point Humidity Pressure Visibility Wind Dir Wind Speed Gust Speed Precip Events Conditions
12:15 AM 32.5 °F 24.8 °F 27.5 °F 82% 29.79 in 10.0 mi WSW 9.2 mph 16.1 mph N/A   Overcast
12:55 AM 32.5 °F 22.7 °F 26.6 °F 79% 29.79 in 10.0 mi WSW 13.8 mph - N/A   Overcast
1:14 AM 32.5 °F 24.2 °F 27.0 °F 80% 29.79 in 10.0 mi WSW 10.4 mph - N/A Snow Light Snow
1:35 AM 32.5 °F 23.7 °F 26.6 °F 79% 29.79 in 10.0 mi WSW 11.5 mph 17.3 mph N/A Snow Light Snow
1:55 AM 32.5 °F 24.2 °F 26.4 °F 78% 29.78 in 10.0 mi WSW 10.4 mph 17.3 mph N/A Snow Light Snow
2:14 AM 32.5 °F 24.8 °F 26.4 °F 78% 29.78 in 10.0 mi West 9.2 mph 16.1 mph N/A   Overcast
2:35 AM 32.5 °F 24.2 °F 26.2 °F 78% 29.78 in 10.0 mi WSW 10.4 mph - N/A   Overcast
2:55 AM 32.5 °F 23.7 °F 26.4 °F 78% 29.78 in 10.0 mi WSW 11.5 mph 16.1 mph N/A   Overcast
3:15 AM 32.5 °F 23.7 °F 26.4 °F 78% 29.78 in 10.0 mi WSW 11.5 mph 16.1 mph N/A Snow Light Snow
3:35 AM 31.8 °F 23.9 °F 25.2 °F 76% 29.78 in 10.0 mi WSW 9.2 mph 16.1 mph N/A Snow Light Snow
3:54 AM 31.8 °F 25.4 °F 25.5 °F 78% 29.78 in 10.0 mi West 6.9 mph 17.3 mph N/A Snow Light Snow
4:15 AM 31.6 °F 24.4 °F 25.3 °F 78% 29.78 in 10.0 mi West 8.1 mph - N/A Snow Light Snow
4:35 AM 31.6 °F 23.7 °F 25.2 °F 77% 29.78 in 10.0 mi West 9.2 mph - N/A Snow Light Snow
4:54 AM 31.5 °F 22.9 °F 25.5 °F 79% 29.78 in 10.0 mi West 10.4 mph - N/A Snow Light Snow
5:15 AM 31.1 °F 23.1 °F 25.2 °F 79% 29.78 in 10.0 mi West 9.2 mph - N/A Snow Light Snow
5:34 AM 31.1 °F 24.5 °F 24.8 °F 77% 29.78 in 10.0 mi West 6.9 mph - N/A Snow Light Snow
5:55 AM 31.1 °F 23.1 °F 24.8 °F 77% 29.79 in 7.0 mi West 9.2 mph - N/A Snow Light Snow
6:15 AM 30.2 °F 19.8 °F 24.6 °F 80% 29.79 in 5.0 mi West 13.8 mph - N/A Snow Light Snow
6:34 AM 30.2 °F 22.6 °F 23.9 °F 77% 29.79 in 7.0 mi West 8.1 mph - N/A Snow Light Snow
6:55 AM 30.2 °F 20.8 °F 23.9 °F 77% 29.79 in 10.0 mi West 11.5 mph 16.1 mph N/A Snow Light Snow
7:15 AM 30.2 °F 21.3 °F 23.0 °F 75% 29.80 in 10.0 mi West 10.4 mph 16.1 mph N/A Snow Light Snow
7:35 AM 30.2 °F 21.9 °F 23.4 °F 76% 29.80 in 10.0 mi WSW 9.2 mph - N/A   Overcast
7:55 AM 30.2 °F 19.8 °F 23.7 °F 77% 29.81 in 10.0 mi WSW 13.8 mph 18.4 mph N/A Snow Light Snow
8:15 AM 30.2 °F 20.2 °F 23.9 °F 77% 29.81 in 10.0 mi WSW 12.7 mph 19.6 mph N/A Snow Light Snow
8:35 AM 30.2 °F 21.3 °F 23.9 °F 77% 29.81 in 10.0 mi West 10.4 mph - N/A Snow Light Snow
8:55 AM 30.2 °F 21.3 °F 23.5 °F 76% 29.81 in 10.0 mi West 10.4 mph - N/A Snow Light Snow
9:15 AM 30.2 °F 20.8 °F 23.0 °F 75% 29.81 in 7.0 mi WSW 11.5 mph 19.6 mph N/A Snow Light Snow
9:35 AM 30.2 °F 21.3 °F 23.5 °F 76% 29.81 in 5.0 mi WSW 10.4 mph 16.1 mph N/A Snow Light Snow
9:55 AM 30.2 °F 21.9 °F 23.9 °F 77% 29.81 in 4.0 mi West 9.2 mph 16.1 mph N/A Snow Light Snow
10:15 AM 30.2 °F 20.8 °F 23.9 °F 77% 29.81 in 5.0 mi West 11.5 mph 16.1 mph N/A Snow Light Snow
11:14 AM 30.2 °F 20.8 °F 23.9 °F 77% 29.82 in 5.0 mi WSW 11.5 mph 16.1 mph N/A Snow Light Snow
11:35 AM 30.2 °F 22.6 °F 24.6 °F 80% 29.82 in 2.5 mi WSW 8.1 mph - N/A Snow Light Snow
12:14 PM 30.2 °F 20.8 °F 23.9 °F 77% 29.82 in 4.0 mi West 11.5 mph - N/A Snow Light Snow
12:35 PM 30.2 °F 22.6 °F 23.9 °F 77% 29.82 in 4.0 mi West 8.1 mph - N/A Snow Light Snow
12:55 PM 30.2 °F 21.9 °F 23.5 °F 76% 29.82 in 7.0 mi WSW 9.2 mph 16.1 mph N/A Snow Light Snow
1:14 PM 30.2 °F 20.8 °F 22.8 °F 74% 29.82 in 7.0 mi WSW 11.5 mph 17.3 mph N/A   Overcast
1:35 PM 30.2 °F 21.9 °F 23.0 °F 75% 29.82 in 10.0 mi WSW 9.2 mph - N/A   Overcast
1:55 PM 30.2 °F 21.3 °F 22.6 °F 73% 29.82 in 10.0 mi WSW 10.4 mph - N/A   Overcast
2:15 PM 30.2 °F 22.6 °F 22.8 °F 74% 29.82 in 10.0 mi West 8.1 mph - N/A Snow Light Snow
2:34 PM 30.2 °F 22.6 °F 22.1 °F 72% 29.82 in 10.0 mi West 8.1 mph - N/A Snow Light Snow
2:55 PM 30.2 °F 21.9 °F 21.9 °F 71% 29.81 in 7.0 mi West 9.2 mph - N/A Snow Light Snow
3:15 PM 30.2 °F 24.3 °F 22.5 °F 73% 29.81 in 4.0 mi West 5.8 mph - N/A Snow Light Snow
3:34 PM 30.2 °F 24.3 °F 22.5 °F 73% 29.81 in 5.0 mi West 5.8 mph - N/A Snow Light Snow
3:55 PM 30.2 °F 23.4 °F 22.1 °F 72% 29.82 in 10.0 mi West 6.9 mph - N/A Snow Light Snow
4:14 PM 30.2 °F 21.9 °F 21.9 °F 71% 29.82 in 10.0 mi West 9.2 mph - N/A   Overcast
4:35 PM 30.2 °F 23.4 °F 21.7 °F 71% 29.82 in 10.0 mi West 6.9 mph - N/A   Overcast
4:55 PM 30.2 °F 22.6 °F 21.7 °F 71% 29.82 in 7.0 mi West 8.1 mph - N/A   Overcast
5:14 PM 30.2 °F 22.6 °F 21.7 °F 71% 29.83 in 10.0 mi West 8.1 mph - N/A   Overcast
5:35 PM 30.2 °F 23.4 °F 22.5 °F 73% 29.83 in 7.0 mi West 6.9 mph - N/A Snow Light Snow
5:55 PM 30.2 °F 24.3 °F 24.8 °F 80% 29.84 in 1.2 mi West 5.8 mph - N/A Snow Light Snow
6:14 PM 30.2 °F 22.6 °F 25.3 °F 82% 29.84 in 2.5 mi West 8.1 mph - N/A Snow Light Snow
6:35 PM 30.2 °F 24.3 °F 25.2 °F 82% 29.84 in 3.0 mi West 5.8 mph - N/A Snow Light Snow
6:55 PM 30.2 °F 24.3 °F 24.4 °F 79% 29.84 in 7.0 mi WSW 5.8 mph - N/A   Overcast
7:14 PM 30.2 °F 22.6 °F 24.3 °F 79% 29.84 in 3.0 mi West 8.1 mph - N/A Snow Light Snow
7:35 PM 30.2 °F 23.4 °F 25.7 °F 83% 29.85 in 2.5 mi WSW 6.9 mph - N/A Snow Light Snow
7:55 PM 30.2 °F 20.8 °F 25.7 °F 83% 29.85 in 2.5 mi West 11.5 mph - N/A Snow Light Snow
8:14 PM 30.2 °F 23.4 °F 24.8 °F 80% 29.86 in 7.0 mi West 6.9 mph 17.3 mph N/A Snow Light Snow
8:35 PM 30.2 °F 21.9 °F 25.3 °F 82% 29.86 in 2.0 mi West 9.2 mph - N/A Snow Light Snow
8:55 PM 30.2 °F 21.3 °F 26.1 °F 85% 29.86 in 2.5 mi West 10.4 mph - N/A Snow Light Snow
9:14 PM 30.2 °F 23.4 °F 25.7 °F 83% 29.86 in 1.8 mi West 6.9 mph 18.4 mph N/A Snow Light Snow
9:35 PM 30.2 °F 20.8 °F 25.7 °F 83% 29.86 in 1.8 mi West 11.5 mph - N/A Snow Light Snow
9:55 PM 30.2 °F 21.9 °F 25.3 °F 82% 29.87 in 3.0 mi West 9.2 mph - N/A Snow Light Snow
10:15 PM 30.2 °F 20.8 °F 24.8 °F 80% 29.86 in 5.0 mi WSW 11.5 mph 17.3 mph N/A Snow Light Snow
10:35 PM 30.2 °F 22.6 °F 25.3 °F 82% 29.86 in 3.0 mi West 8.1 mph - N/A Snow Light Snow
10:55 PM 30.2 °F 21.9 °F 25.7 °F 83% 29.86 in 2.5 mi West 9.2 mph - N/A Snow Light Snow
11:15 PM 30.2 °F 22.6 °F 25.5 °F 83% 29.86 in 5.0 mi West 8.1 mph - N/A Snow Light Snow
11:55 PM 30.2 °F 21.9 °F 25.2 °F 82% 29.85 in 5.0 mi West 9.2 mph 17.3 mph N/A Snow Light Snow